User: anonymous   Login
Location: Champseau
(45.8333°N, 1.7667°E)
Time: 21:02:42
(UTC+00:00)
Language:

STRAND 1 - Orbit

View from above orbital plane
View from above orbital plane
View from above satellite
View from above satellite

Ground track
Ground track

The orbit data is extracted from the following two-line orbital elements,

1 39090U 13009E   21335.51969684  .00000271  00000-0  10971-3 0  9997
2 39090  98.4128 173.6841 0009803 136.1468 224.0498 14.35209304459002
Epoch (UTC): 01 December 2021 12:28:21
Eccentricity: 0.0009803
inclination: 98.4128°
perigee height: 767 km
apogee height: 781 km
right ascension of ascending node: 173.6841°
argument of perigee: 136.1468°
revolutions per day: 14.35209304
mean anomaly at epoch: 224.0498°
orbit number at epoch: 45900

The dashed part of the orbit path shows where the satellite is in the earth's shadow,  

DLR